Time,TemperatureF,DewpointF,PressureIn,WindDirection,WindDirectionDegrees,WindSpeedMPH,WindSpeedGustMPH,Humidity,HourlyPrecipIn,Conditions,Clouds,dailyrainin,SoftwareType,DateUTC
2013-09-20 00:00:00,64.0,36.5,30.16,NNW,337,4.0,10.0,36,0.00,,---,0.00,VWS V14.01,2013-09-20 06:00:00,
2013-09-20 00:10:00,64.0,35.8,30.16,NNW,337,2.0,7.0,35,0.00,,---,0.00,VWS V14.01,2013-09-20 06:10:00,
2013-09-20 00:20:00,64.0,35.8,30.16,NNW,337,0.0,8.0,35,0.00,,---,0.00,VWS V14.01,2013-09-20 06:20:00,
2013-09-20 00:30:00,64.0,35.8,30.16,SSE,157,6.0,8.0,35,0.00,,---,0.00,VWS V14.01,2013-09-20 06:30:00,
2013-09-20 00:40:00,64.0,35.8,30.17,ENE,67,2.0,7.0,35,0.00,,---,0.00,VWS V14.01,2013-09-20 06:40:00,
2013-09-20 00:50:00,63.0,37.0,30.17,West,270,7.0,10.0,38,0.00,,---,0.00,VWS V14.01,2013-09-20 06:50:00,
2013-09-20 01:00:00,63.0,38.3,30.17,West,270,7.0,9.0,40,0.00,,---,0.00,VWS V14.01,2013-09-20 07:00:00,
2013-09-20 01:10:00,63.0,38.3,30.17,WNW,292,5.0,9.0,40,0.00,,---,0.00,VWS V14.01,2013-09-20 07:10:00,
2013-09-20 01:20:00,63.0,38.3,30.18,NW,315,5.0,9.0,40,0.00,,---,0.00,VWS V14.01,2013-09-20 07:20:00,
2013-09-20 01:30:00,63.0,39.0,30.18,East,90,3.0,9.0,41,0.00,,---,0.00,VWS V14.01,2013-09-20 07:30:00,
2013-09-20 01:40:00,62.0,41.0,30.19,SE,135,4.0,12.0,46,0.00,,---,0.00,VWS V14.01,2013-09-20 07:40:00,
2013-09-20 01:50:00,61.0,40.7,30.20,SE,135,0.0,7.0,47,0.00,,---,0.00,VWS V14.01,2013-09-20 07:50:00,
2013-09-20 02:00:00,60.0,40.8,30.20,SW,225,0.0,0.0,49,0.00,,---,0.00,VWS V14.01,2013-09-20 08:00:00,
2013-09-20 02:10:00,60.0,41.3,30.20,WSW,247,0.0,4.0,50,0.00,,---,0.00,VWS V14.01,2013-09-20 08:10:00,
2013-09-20 02:20:00,59.0,40.4,30.21,North,360,0.0,0.0,50,0.00,,---,0.00,VWS V14.01,2013-09-20 08:20:00,
2013-09-20 02:30:00,60.0,42.3,30.21,West,270,0.0,0.0,52,0.00,,---,0.00,VWS V14.01,2013-09-20 08:30:00,
2013-09-20 02:40:00,60.0,41.8,30.21,West,270,0.0,0.0,51,0.00,,---,0.00,VWS V14.01,2013-09-20 08:40:00,
2013-09-20 02:50:00,59.0,41.9,30.21,West,270,4.0,7.0,53,0.00,,---,0.00,VWS V14.01,2013-09-20 08:50:00,
2013-09-20 03:00:00,59.0,42.4,30.21,West,270,6.0,9.0,54,0.00,,---,0.00,VWS V14.01,2013-09-20 09:00:00,
2013-09-20 03:09:00,59.0,43.3,30.21,West,270,6.0,9.0,56,0.00,,---,0.00,VWS V14.01,2013-09-20 09:09:00,
2013-09-20 03:19:00,58.0,43.3,30.21,West,270,7.0,8.0,58,0.00,,---,0.00,VWS V14.01,2013-09-20 09:19:00,
2013-09-20 03:30:00,59.0,44.3,30.22,West,270,7.0,9.0,58,0.00,,---,0.00,VWS V14.01,2013-09-20 09:30:00,
2013-09-20 03:39:00,58.0,44.6,30.22,SE,135,5.0,10.0,61,0.00,,---,0.00,VWS V14.01,2013-09-20 09:39:00,
2013-09-20 03:49:00,58.0,45.1,30.22,West,270,7.0,12.0,62,0.00,,---,0.00,VWS V14.01,2013-09-20 09:49:00,
2013-09-20 04:00:00,58.0,45.5,30.22,West,270,8.0,11.0,63,0.00,,---,0.00,VWS V14.01,2013-09-20 10:00:00,
2013-09-20 04:09:00,58.0,45.9,30.22,SSE,157,8.0,10.0,64,0.00,,---,0.00,VWS V14.01,2013-09-20 10:09:00,
2013-09-20 04:19:00,58.0,46.3,30.22,WSW,247,8.0,10.0,65,0.00,,---,0.00,VWS V14.01,2013-09-20 10:19:00,
2013-09-20 04:29:00,59.0,46.8,30.22,West,270,6.0,12.0,64,0.00,,---,0.00,VWS V14.01,2013-09-20 10:29:00,
2013-09-20 04:39:00,59.0,47.3,30.22,East,90,6.0,12.0,65,0.00,,---,0.00,VWS V14.01,2013-09-20 10:39:00,
2013-09-20 04:49:00,59.0,48.1,30.22,West,270,9.0,10.0,67,0.00,,---,0.00,VWS V14.01,2013-09-20 10:49:00,
2013-09-20 04:59:00,59.0,47.7,30.23,WSW,247,7.0,12.0,66,0.00,,---,0.00,VWS V14.01,2013-09-20 10:59:00,
2013-09-20 05:09:00,59.0,47.7,30.23,WSW,247,8.0,14.0,66,0.00,,---,0.00,VWS V14.01,2013-09-20 11:09:00,
2013-09-20 05:19:00,59.0,48.1,30.23,SW,225,10.0,16.0,67,0.00,,---,0.00,VWS V14.01,2013-09-20 11:19:00,
2013-09-20 05:29:00,59.0,48.9,30.23,WSW,247,9.0,10.0,69,0.00,,---,0.00,VWS V14.01,2013-09-20 11:29:00,
2013-09-20 05:39:00,58.0,49.0,30.24,ESE,112,6.0,11.0,72,0.00,,---,0.00,VWS V14.01,2013-09-20 11:39:00,
2013-09-20 05:49:00,58.0,49.8,30.24,West,270,8.0,10.0,74,0.00,,---,0.00,VWS V14.01,2013-09-20 11:49:00,
2013-09-20 05:59:00,57.0,49.9,30.24,West,270,6.0,11.0,77,0.00,,---,0.00,VWS V14.01,2013-09-20 11:59:00,
2013-09-20 06:09:00,57.0,50.2,30.25,WSW,247,7.0,11.0,78,0.00,,---,0.00,VWS V14.01,2013-09-20 12:09:00,
2013-09-20 06:19:00,57.0,50.2,30.25,South,180,9.0,15.0,78,0.00,,---,0.00,VWS V14.01,2013-09-20 12:19:00,
2013-09-20 06:29:00,57.0,50.2,30.25,SSW,202,10.0,17.0,78,0.00,,---,0.00,VWS V14.01,2013-09-20 12:29:00,
2013-09-20 06:39:00,58.0,50.5,30.25,West,270,13.0,16.0,76,0.00,,---,0.00,VWS V14.01,2013-09-20 12:39:00,
2013-09-20 06:49:00,57.0,49.5,30.25,WSW,247,9.0,14.0,76,0.00,,---,0.00,VWS V14.01,2013-09-20 12:49:00,
2013-09-20 06:59:00,57.0,49.5,30.26,West,270,10.0,15.0,76,0.00,,---,0.00,VWS V14.01,2013-09-20 12:59:00,
2013-09-20 07:09:00,57.0,49.9,30.26,West,270,9.0,14.0,77,0.00,,---,0.00,VWS V14.01,2013-09-20 13:09:00,
2013-09-20 07:20:00,57.0,49.9,30.26,West,270,10.0,11.0,77,0.00,,---,0.00,VWS V14.01,2013-09-20 13:20:00,
2013-09-20 07:40:00,59.0,51.5,30.26,West,270,7.0,11.0,76,0.00,,---,0.00,VWS V14.01,2013-09-20 13:40:00,
2013-09-20 07:50:00,60.0,52.1,30.25,West,270,7.0,12.0,75,0.00,,---,0.00,VWS V14.01,2013-09-20 13:50:00,
2013-09-20 08:00:00,60.0,51.7,30.26,West,270,7.0,12.0,74,0.00,,---,0.00,VWS V14.01,2013-09-20 14:00:00,
2013-09-20 08:10:00,61.0,51.9,30.25,WNW,292,4.0,10.0,72,0.00,,---,0.00,VWS V14.01,2013-09-20 14:10:00,
2013-09-20 08:20:00,61.0,51.2,30.25,West,270,6.0,10.0,70,0.00,,---,0.00,VWS V14.01,2013-09-20 14:20:00,
2013-09-20 08:30:00,62.0,51.7,30.25,WNW,292,3.0,9.0,69,0.00,,---,0.00,VWS V14.01,2013-09-20 14:30:00,
2013-09-20 08:40:00,63.0,51.5,30.24,WNW,292,0.0,11.0,66,0.00,,---,0.00,VWS V14.01,2013-09-20 14:40:00,
2013-09-20 08:50:00,65.0,51.7,30.24,NW,315,0.0,7.0,62,0.00,,---,0.00,VWS V14.01,2013-09-20 14:50:00,
2013-09-20 09:00:00,66.0,51.7,30.23,North,360,0.0,9.0,60,0.00,,---,0.00,VWS V14.01,2013-09-20 15:00:00,
2013-09-20 09:10:00,68.0,52.7,30.23,North,360,0.0,8.0,58,0.00,,---,0.00,VWS V14.01,2013-09-20 15:10:00,
2013-09-20 09:20:00,68.0,52.2,30.22,ENE,67,0.0,7.0,57,0.00,,---,0.00,VWS V14.01,2013-09-20 15:20:00,
2013-09-20 09:30:00,68.0,52.2,30.22,North,360,0.0,0.0,57,0.00,,---,0.00,VWS V14.01,2013-09-20 15:30:00,
2013-09-20 09:40:00,68.0,52.2,30.22,North,360,0.0,11.0,57,0.00,,---,0.00,VWS V14.01,2013-09-20 15:40:00,
2013-09-20 09:49:00,68.0,52.2,30.22,NE,45,7.0,10.0,57,0.00,,---,0.00,VWS V14.01,2013-09-20 15:49:00,
2013-09-20 10:00:00,69.0,52.7,30.22,North,360,0.0,7.0,56,0.00,,---,0.00,VWS V14.01,2013-09-20 16:00:00,
2013-09-20 10:09:00,71.0,52.0,30.22,NE,45,0.0,0.0,51,0.00,,---,0.00,VWS V14.01,2013-09-20 16:09:00,
2013-09-20 10:19:00,72.0,51.8,30.22,North,360,0.0,0.0,49,0.00,,---,0.00,VWS V14.01,2013-09-20 16:19:00,
2013-09-20 10:29:00,72.0,50.7,30.22,North,360,0.0,0.0,47,0.00,,---,0.00,VWS V14.01,2013-09-20 16:29:00,
2013-09-20 10:39:00,71.0,51.5,30.21,North,360,0.0,0.0,50,0.00,,---,0.00,VWS V14.01,2013-09-20 16:39:00,
2013-09-20 10:49:00,71.0,51.5,30.21,West,270,0.0,4.0,50,0.00,,---,0.00,VWS V14.01,2013-09-20 16:49:00,
2013-09-20 11:00:00,73.0,51.6,30.20,SE,135,0.0,0.0,47,0.00,,---,0.00,VWS V14.01,2013-09-20 17:00:00,
2013-09-20 11:09:00,71.0,50.3,30.20,North,360,0.0,0.0,48,0.00,,---,0.00,VWS V14.01,2013-09-20 17:09:00,
2013-09-20 11:19:00,73.0,51.6,30.19,SW,225,0.0,0.0,47,0.00,,---,0.00,VWS V14.01,2013-09-20 17:19:00,
2013-09-20 11:29:00,75.0,51.6,30.19,SE,135,0.0,0.0,44,0.00,,---,0.00,VWS V14.01,2013-09-20 17:29:00,
2013-09-20 11:39:00,74.0,51.3,30.18,East,90,0.0,0.0,45,0.00,,---,0.00,VWS V14.01,2013-09-20 17:39:00,
2013-09-20 11:49:00,76.0,51.9,30.18,NNE,22,0.0,0.0,43,0.00,,---,0.00,VWS V14.01,2013-09-20 17:49:00,
2013-09-20 11:59:00,74.0,51.3,30.18,NE,45,0.0,0.0,45,0.00,,---,0.00,VWS V14.01,2013-09-20 17:59:00,
2013-09-20 12:09:00,74.0,51.3,30.18,ESE,112,0.0,0.0,45,0.00,,---,0.00,VWS V14.01,2013-09-20 18:09:00,
2013-09-20 12:19:00,74.0,50.7,30.17,ENE,67,0.0,0.0,44,0.00,,---,0.00,VWS V14.01,2013-09-20 18:19:00,
2013-09-20 12:29:00,74.0,50.7,30.17,West,270,0.0,0.0,44,0.00,,---,0.00,VWS V14.01,2013-09-20 18:29:00,
2013-09-20 12:39:00,75.0,50.4,30.17,SE,135,0.0,0.0,42,0.00,,---,0.00,VWS V14.01,2013-09-20 18:39:00,
2013-09-20 12:49:00,76.0,50.6,30.17,South,180,0.0,0.0,41,0.00,,---,0.00,VWS V14.01,2013-09-20 18:49:00,
2013-09-20 12:59:00,77.0,50.2,30.16,SSE,157,0.0,0.0,39,0.00,,---,0.00,VWS V14.01,2013-09-20 18:59:00,
2013-09-20 13:09:00,78.0,50.4,30.16,NNW,337,0.0,0.0,38,0.00,,---,0.00,VWS V14.01,2013-09-20 19:09:00,
2013-09-20 13:20:00,76.0,49.3,30.16,ESE,112,0.0,0.0,39,0.00,,---,0.00,VWS V14.01,2013-09-20 19:20:00,
2013-09-20 13:29:00,76.0,49.3,30.15,North,360,0.0,0.0,39,0.00,,---,0.00,VWS V14.01,2013-09-20 19:29:00,
2013-09-20 13:39:00,77.0,48.8,30.15,SE,135,0.0,0.0,37,0.00,,---,0.00,VWS V14.01,2013-09-20 19:39:00,
2013-09-20 13:49:00,78.0,47.4,30.15,SW,225,0.0,0.0,34,0.00,,---,0.00,VWS V14.01,2013-09-20 19:49:00,
2013-09-20 13:59:00,79.0,47.5,30.14,WSW,247,0.0,0.0,33,0.00,,---,0.00,VWS V14.01,2013-09-20 19:59:00,
2013-09-20 14:09:00,78.0,48.2,30.13,SE,135,0.0,0.0,35,0.00,,---,0.00,VWS V14.01,2013-09-20 20:09:00,
2013-09-20 14:19:00,79.0,48.3,30.12,SSE,157,0.0,0.0,34,0.00,,---,0.00,VWS V14.01,2013-09-20 20:19:00,
2013-09-20 14:29:00,80.0,49.9,30.12,NE,45,0.0,0.0,35,0.00,,---,0.00,VWS V14.01,2013-09-20 20:29:00,
2013-09-20 14:39:00,80.0,49.1,30.12,SSW,202,0.0,0.0,34,0.00,,---,0.00,VWS V14.01,2013-09-20 20:39:00,
2013-09-20 14:50:00,79.0,48.3,30.11,SW,225,0.0,0.0,34,0.00,,---,0.00,VWS V14.01,2013-09-20 20:50:00,
2013-09-20 15:00:00,81.0,49.2,30.10,SE,135,0.0,0.0,33,0.00,,---,0.00,VWS V14.01,2013-09-20 21:00:00,
2013-09-20 15:10:00,81.0,49.2,30.10,SE,135,0.0,0.0,33,0.00,,---,0.00,VWS V14.01,2013-09-20 21:10:00,
2013-09-20 15:20:00,79.0,46.7,30.10,WSW,247,3.0,3.0,32,0.00,,---,0.00,VWS V14.01,2013-09-20 21:20:00,
2013-09-20 15:30:00,79.0,46.7,30.10,West,270,2.0,4.0,32,0.00,,---,0.00,VWS V14.01,2013-09-20 21:30:00,
2013-09-20 15:40:00,80.0,46.7,30.10,North,360,0.0,4.0,31,0.00,,---,0.00,VWS V14.01,2013-09-20 21:40:00,
2013-09-20 15:50:00,80.0,45.8,30.09,West,270,0.0,0.0,30,0.00,,---,0.00,VWS V14.01,2013-09-20 21:50:00,
2013-09-20 16:00:00,81.0,45.8,30.08,ESE,112,0.0,0.0,29,0.00,,---,0.00,VWS V14.01,2013-09-20 22:00:00,
2013-09-20 16:10:00,78.0,46.6,30.08,East,90,0.0,0.0,33,0.00,,---,0.00,VWS V14.01,2013-09-20 22:10:00,
2013-09-20 16:19:00,78.0,46.6,30.10,South,180,0.0,0.0,33,0.00,,---,0.00,VWS V14.01,2013-09-20 22:19:00,
2013-09-20 16:29:00,79.0,46.7,30.10,SW,225,0.0,0.0,32,0.00,,---,0.00,VWS V14.01,2013-09-20 22:29:00,
2013-09-20 16:39:00,79.0,46.7,30.10,SW,225,0.0,0.0,32,0.00,,---,0.00,VWS V14.01,2013-09-20 22:39:00,
2013-09-20 16:49:00,80.0,49.1,30.10,SW,225,0.0,0.0,34,0.00,,---,0.00,VWS V14.01,2013-09-20 22:49:00,
2013-09-20 17:00:00,78.0,46.6,30.09,SSE,157,8.0,10.0,33,0.00,,---,0.00,VWS V14.01,2013-09-20 23:00:00,
2013-09-20 17:10:00,77.0,47.3,30.10,South,180,0.0,8.0,35,0.00,,---,0.00,VWS V14.01,2013-09-20 23:10:00,
2013-09-20 17:19:00,77.0,47.3,30.11,North,360,8.0,8.0,35,0.00,,---,0.00,VWS V14.01,2013-09-20 23:19:00,
2013-09-20 17:29:00,76.0,46.4,30.11,SW,225,0.0,8.0,35,0.00,,---,0.00,VWS V14.01,2013-09-20 23:29:00,
2013-09-20 17:39:00,76.0,47.2,30.12,North,360,0.0,0.0,36,0.00,,---,0.00,VWS V14.01,2013-09-20 23:39:00,
2013-09-20 17:49:00,75.0,47.7,30.13,South,180,4.0,8.0,38,0.00,,---,0.00,VWS V14.01,2013-09-20 23:49:00,
2013-09-20 18:00:00,75.0,48.4,30.13,South,180,0.0,9.0,39,0.00,,---,0.00,VWS V14.01,2013-09-21 00:00:00,
2013-09-20 18:09:00,74.0,47.5,30.14,South,180,3.0,9.0,39,0.00,,---,0.00,VWS V14.01,2013-09-21 00:09:00,
2013-09-20 18:19:00,74.0,48.2,30.14,SSW,202,1.0,8.0,40,0.00,,---,0.00,VWS V14.01,2013-09-21 00:19:00,
2013-09-20 18:29:00,73.0,49.8,30.14,SW,225,7.0,10.0,44,0.00,,---,0.00,VWS V14.01,2013-09-21 00:29:00,
2013-09-20 18:39:00,73.0,50.4,30.14,North,360,8.0,10.0,45,0.00,,---,0.00,VWS V14.01,2013-09-21 00:39:00,
2013-09-20 18:49:00,73.0,50.4,30.15,SW,225,2.0,10.0,45,0.00,,---,0.00,VWS V14.01,2013-09-21 00:49:00,
2013-09-20 18:59:00,72.0,49.5,30.15,SSW,202,2.0,6.0,45,0.00,,---,0.00,VWS V14.01,2013-09-21 00:59:00,
2013-09-20 19:09:00,72.0,51.8,30.15,SE,135,0.0,10.0,49,0.00,,---,0.00,VWS V14.01,2013-09-21 01:09:00,
2013-09-20 19:19:00,71.0,51.5,30.15,SSE,157,0.0,6.0,50,0.00,,---,0.00,VWS V14.01,2013-09-21 01:19:00,
2013-09-20 19:29:00,70.0,51.1,30.16,SE,135,3.0,8.0,51,0.00,,---,0.00,VWS V14.01,2013-09-21 01:29:00,
2013-09-20 19:39:00,70.0,51.6,30.16,North,360,0.0,8.0,52,0.00,,---,0.00,VWS V14.01,2013-09-21 01:39:00,
2013-09-20 19:49:00,70.0,52.1,30.16,SE,135,4.0,9.0,53,0.00,,---,0.00,VWS V14.01,2013-09-21 01:49:00,
2013-09-20 19:59:00,69.0,51.7,30.16,SE,135,0.0,6.0,54,0.00,,---,0.00,VWS V14.01,2013-09-21 01:59:00,
2013-09-20 20:09:00,69.0,52.2,30.18,South,180,0.0,7.0,55,0.00,,---,0.00,VWS V14.01,2013-09-21 02:09:00,
2013-09-20 20:19:00,68.0,51.7,30.18,SSE,157,0.0,5.0,56,0.00,,---,0.00,VWS V14.01,2013-09-21 02:19:00,
2013-09-20 20:29:00,68.0,51.7,30.19,South,180,0.0,0.0,56,0.00,,---,0.00,VWS V14.01,2013-09-21 02:29:00,
2013-09-20 20:39:00,67.0,51.3,30.19,SSW,202,0.0,3.0,57,0.00,,---,0.00,VWS V14.01,2013-09-21 02:39:00,
2013-09-20 20:49:00,67.0,51.3,30.20,SSW,202,0.0,0.0,57,0.00,,---,0.00,VWS V14.01,2013-09-21 02:49:00,
2013-09-20 21:00:00,67.0,52.2,30.21,SSW,202,0.0,0.0,59,0.00,,---,0.00,VWS V14.01,2013-09-21 03:00:00,
2013-09-20 21:10:00,66.0,51.7,30.21,SSW,202,0.0,0.0,60,0.00,,---,0.00,VWS V14.01,2013-09-21 03:10:00,
2013-09-20 21:19:00,66.0,52.2,30.21,SW,225,0.0,0.0,61,0.00,,---,0.00,VWS V14.01,2013-09-21 03:19:00,
2013-09-20 21:29:00,65.0,51.7,30.22,SW,225,0.0,0.0,62,0.00,,---,0.00,VWS V14.01,2013-09-21 03:29:00,
2013-09-20 21:40:00,65.0,52.1,30.22,SSW,202,0.0,0.0,63,0.00,,---,0.00,VWS V14.01,2013-09-21 03:40:00,
2013-09-20 21:49:00,64.0,51.6,30.22,SW,225,0.0,0.0,64,0.00,,---,0.00,VWS V14.01,2013-09-21 03:49:00,
2013-09-20 21:59:00,64.0,52.0,30.23,SW,225,0.0,0.0,65,0.00,,---,0.00,VWS V14.01,2013-09-21 03:59:00,
2013-09-20 22:09:00,64.0,52.4,30.23,SW,225,0.0,0.0,66,0.00,,---,0.00,VWS V14.01,2013-09-21 04:09:00,
2013-09-20 22:20:00,64.0,52.4,30.23,SW,225,0.0,0.0,66,0.00,,---,0.00,VWS V14.01,2013-09-21 04:20:00,
2013-09-20 22:30:00,63.0,51.9,30.23,West,270,0.0,0.0,67,0.00,,---,0.00,VWS V14.01,2013-09-21 04:30:00,
2013-09-20 22:40:00,63.0,52.7,30.23,West,270,0.0,0.0,69,0.00,,---,0.00,VWS V14.01,2013-09-21 04:40:00,
2013-09-20 22:49:00,62.0,52.5,30.24,West,270,0.0,0.0,71,0.00,,---,0.00,VWS V14.01,2013-09-21 04:49:00,
2013-09-20 23:00:00,62.0,52.9,30.24,West,270,0.0,0.0,72,0.00,,---,0.00,VWS V14.01,2013-09-21 05:00:00,
2013-09-20 23:09:00,62.0,52.9,30.24,West,270,0.0,4.0,72,0.00,,---,0.00,VWS V14.01,2013-09-21 05:09:00,
2013-09-20 23:19:00,62.0,52.9,30.24,West,270,0.0,0.0,72,0.00,,---,0.00,VWS V14.01,2013-09-21 05:19:00,
2013-09-20 23:29:00,61.0,51.9,30.24,West,270,0.0,0.0,72,0.00,,---,0.00,VWS V14.01,2013-09-21 05:29:00,
2013-09-20 23:39:00,62.0,52.9,30.24,North,360,4.0,6.0,72,0.00,,---,0.00,VWS V14.01,2013-09-21 05:39:00,
2013-09-20 23:49:00,61.0,51.9,30.25,West,270,0.0,4.0,72,0.00,,---,0.00,VWS V14.01,2013-09-21 05:49:00,